Вернуться в каталог

KUIPER-00117

АктивенСвязьLEO
NORAD 65949·PAYLOAD·🇺🇸 United States

Запущен Oct 14, 2025 с Cape Canaveral Space Force Station

Loading…

Ближайшие Пролёты (ближайшие 24 часа)

TLE

СвежийSource: CelesTrak SupGP

Эпоха: Sep 14, 2026, 19:47 UTC

1 65949C 25228C   26257.82453704  .00002390  00000+0  31281-3 0  2575
2 65949  51.8969 241.7074 0000760  48.7566 180.3626 14.79926103    16

Отслеживайте KUIPER-00117 в реальном времени с AllMySat

Download on the App Store